• în Republica Moldova
  • Lista ţărilor
  • Pe 7 zile
  • Temperatura apei
  • Hartă satelitară
  • Meteo pe hartă
  • Widget-uri
  • user-avatar
    Intrare

    Meteo pe oră la Hobart

    Astăzi, 17 Iulie, Marţi

    Timp Temperatura Precipitaţii Vânt Presiune Umiditate
    00:00 +7°C° 0 mm 4 m/s 735 mmHg 85%
    01:00 +8°C° 0 mm 4 m/s 735 mmHg 85%
    02:00 +8°C° 0 mm 4 m/s 735 mmHg 85%
    03:00 +8°C° 0 mm 4 m/s 735 mmHg 86%
    04:00 +10°C° 0 mm 6 m/s 734 mmHg 84%
    05:00 +10°C° 0 mm 5 m/s 734 mmHg 81%
    06:00 +12°C° 0 mm 5 m/s 734 mmHg 79%
    07:00 +12°C° 0 mm 5 m/s 734 mmHg 77%
    08:00 +13°C° 0 mm 6 m/s 734 mmHg 71%
    09:00 +13°C° 0 mm 6 m/s 734 mmHg 66%
    10:00 +14°C° 0 mm 7 m/s 733 mmHg 60%
    11:00 +14°C° 0 mm 7 m/s 732 mmHg 56%
    12:00 +13°C° 0 mm 8 m/s 731 mmHg 53%
    13:00 +15°C° 0 mm 8 m/s 731 mmHg 49%
    14:00 +13°C° 0 mm 8 m/s 730 mmHg 50%
    15:00 +13°C° 0 mm 8 m/s 729 mmHg 50%
    16:00 +13°C° 0 mm 8 m/s 728 mmHg 51%
    17:00 +11°C° 0,4 mm 8 m/s 729 mmHg 63%
    18:00 +10°C° 0,4 mm 8 m/s 729 mmHg 74%
    19:00 +7°C° 0,4 mm 8 m/s 729 mmHg 85%
    20:00 +6°C° 0,1 mm 8 m/s 731 mmHg 84%
    21:00 +6°C° 0,1 mm 7 m/s 732 mmHg 82%
    22:00 +5°C° 0,1 mm 7 m/s 733 mmHg 81%
    23:00 +4°C° 0 mm 7 m/s 734 mmHg 81%

    Mâine, 18 Iulie, Miercuri

    Timp Temperatura Precipitaţii Vânt Presiune Umiditate
    00:00 +4°C° 0 mm 7 m/s 735 mmHg 82%
    01:00 +3°C° 0 mm 6 m/s 736 mmHg 82%
    02:00 +3°C° 0 mm 6 m/s 737 mmHg 82%
    03:00 +3°C° 0 mm 6 m/s 737 mmHg 82%
    04:00 +3°C° 0 mm 6 m/s 738 mmHg 82%
    05:00 +3°C° 0 mm 5 m/s 738 mmHg 83%
    06:00 +3°C° 0 mm 5 m/s 738 mmHg 83%
    07:00 +4°C° 0 mm 4 m/s 738 mmHg 84%
    08:00 +5°C° 0 mm 5 m/s 739 mmHg 77%
    09:00 +7°C° 0 mm 5 m/s 739 mmHg 70%
    10:00 +8°C° 0 mm 6 m/s 739 mmHg 64%
    11:00 +9°C° 0 mm 6 m/s 738 mmHg 62%
    12:00 +10°C° 0 mm 6 m/s 737 mmHg 60%
    13:00 +11°C° 0 mm 7 m/s 737 mmHg 58%
    14:00 +11°C° 0,1 mm 7 m/s 736 mmHg 60%
    15:00 +11°C° 0,1 mm 7 m/s 736 mmHg 62%
    16:00 +11°C° 0,1 mm 7 m/s 735 mmHg 63%
    17:00 +11°C° 1 mm 6 m/s 735 mmHg 69%
    18:00 +10°C° 1 mm 6 m/s 735 mmHg 76%
    19:00 +9°C° 1 mm 5 m/s 735 mmHg 82%
    20:00 +9°C° 2,2 mm 5 m/s 735 mmHg 87%
    21:00 +8°C° 2,2 mm 4 m/s 735 mmHg 92%
    22:00 +7°C° 2,2 mm 4 m/s 735 mmHg 96%
    23:00 +7°C° 1,6 mm 4 m/s 735 mmHg 96%

    Poimâine, 19 Iulie, Joi

    Timp Temperatura Precipitaţii Vânt Presiune Umiditate
    00:00 +7°C° 1,6 mm 4 m/s 735 mmHg 96%
    01:00 +7°C° 1,6 mm 4 m/s 735 mmHg 96%
    02:00 +7°C° 1 mm 4 m/s 734 mmHg 96%
    03:00 +7°C° 1 mm 4 m/s 734 mmHg 96%
    04:00 +7°C° 1 mm 4 m/s 734 mmHg 96%
    05:00 +7°C° 0,2 mm 4 m/s 734 mmHg 94%
    06:00 +7°C° 0,2 mm 5 m/s 734 mmHg 92%
    07:00 +8°C° 0,2 mm 5 m/s 734 mmHg 90%
    08:00 +8°C° 0 mm 5 m/s 734 mmHg 89%
    09:00 +8°C° 0 mm 5 m/s 734 mmHg 87%
    10:00 +8°C° 0 mm 5 m/s 734 mmHg 85%
    11:00 +8°C° 0,1 mm 5 m/s 734 mmHg 81%
    12:00 +8°C° 0,1 mm 5 m/s 733 mmHg 78%
    13:00 +8°C° 0,1 mm 5 m/s 733 mmHg 75%
    14:00 +8°C° 0,1 mm 5 m/s 733 mmHg 75%
    15:00 +7°C° 0,1 mm 5 m/s 733 mmHg 75%
    16:00 +7°C° 0,1 mm 5 m/s 734 mmHg 75%
    17:00 +6°C° 0 mm 5 m/s 734 mmHg 76%
    18:00 +6°C° 0 mm 5 m/s 734 mmHg 78%
    19:00 +5°C° 0 mm 5 m/s 734 mmHg 80%
    20:00 +5°C° 0 mm 5 m/s 734 mmHg 80%
    21:00 +5°C° 0 mm 5 m/s 734 mmHg 79%
    22:00 +5°C° 0 mm 5 m/s 734 mmHg 79%
    23:00 +5°C° 0 mm 5 m/s 733 mmHg 79%

    20 Iulie, Vineri

    Timp Temperatura Precipitaţii Vânt Presiune Umiditate
    00:00 +3°C° 0 mm 5 m/s 733 mmHg 79%
    01:00 +3°C° 0 mm 5 m/s 733 mmHg 78%
    02:00 +3°C° 0 mm 5 m/s 732 mmHg 78%
    03:00 +3°C° 0 mm 5 m/s 732 mmHg 78%
    04:00 +3°C° 0 mm 6 m/s 731 mmHg 77%
    05:00 +3°C° 0 mm 6 m/s 731 mmHg 77%
    06:00 +3°C° 0 mm 6 m/s 731 mmHg 77%
    07:00 +3°C° 0 mm 6 m/s 731 mmHg 77%
    08:00 +4°C° 0,1 mm 6 m/s 731 mmHg 73%
    09:00 +5°C° 0,1 mm 6 m/s 731 mmHg 70%
    10:00 +7°C° 0,1 mm 6 m/s 732 mmHg 66%
    11:00 +6°C° 0,1 mm 7 m/s 732 mmHg 62%
    12:00 +8°C° 0,1 mm 7 m/s 732 mmHg 59%
    13:00 +8°C° 0,1 mm 7 m/s 733 mmHg 55%
    14:00 +8°C° 0,1 mm 7 m/s 733 mmHg 57%
    15:00 +6°C° 0,1 mm 7 m/s 734 mmHg 60%
    16:00 +5°C° 0,1 mm 7 m/s 734 mmHg 62%
    17:00 +5°C° 0,2 mm 8 m/s 735 mmHg 69%
    18:00 +4°C° 0,2 mm 8 m/s 736 mmHg 76%
    19:00 +2°C° 0,2 mm 8 m/s 737 mmHg 82%
    20:00 +2°C° 0 mm 8 m/s 737 mmHg 82%
    21:00 +2°C° 0 mm 8 m/s 738 mmHg 81%
    22:00 +3°C° 0 mm 7 m/s 739 mmHg 80%
    23:00 +3°C° 0 mm 7 m/s 739 mmHg 81%

    21 Iulie, Sâmbătă

    Timp Temperatura Precipitaţii Vânt Presiune Umiditate
    00:00 +3°C° 0 mm 7 m/s 740 mmHg 81%
    01:00 +3°C° 0 mm 7 m/s 740 mmHg 81%
    02:00 +3°C° 0 mm 7 m/s 740 mmHg 82%
    03:00 +3°C° 0 mm 7 m/s 740 mmHg 82%
    04:00 +3°C° 0 mm 7 m/s 741 mmHg 83%
    05:00 +3°C° 0 mm 6 m/s 741 mmHg 83%
    06:00 +3°C° 0 mm 6 m/s 742 mmHg 83%
    07:00 +4°C° 0 mm 6 m/s 742 mmHg 83%
    08:00 +4°C° 0,1 mm 6 m/s 743 mmHg 81%
    09:00 +5°C° 0,1 mm 6 m/s 743 mmHg 78%
    10:00 +5°C° 0,1 mm 7 m/s 743 mmHg 75%
    11:00 +7°C° 0,1 mm 6 m/s 743 mmHg 74%
    12:00 +7°C° 0,1 mm 6 m/s 743 mmHg 72%
    13:00 +8°C° 0,1 mm 6 m/s 743 mmHg 70%
    14:00 +7°C° 0,1 mm 6 m/s 743 mmHg 73%
    15:00 +7°C° 0,1 mm 5 m/s 743 mmHg 76%
    16:00 +7°C° 0,1 mm 4 m/s 744 mmHg 80%
    17:00 +6°C° 0 mm 4 m/s 744 mmHg 83%
    18:00 +6°C° 0 mm 4 m/s 744 mmHg 86%
    19:00 +5°C° 0 mm 3 m/s 744 mmHg 89%
    20:00 +5°C° 0 mm 3 m/s 745 mmHg 90%
    21:00 +5°C° 0 mm 3 m/s 745 mmHg 90%
    22:00 +5°C° 0 mm 3 m/s 745 mmHg 90%
    23:00 +5°C° 0 mm 3 m/s 745 mmHg 90%

    22 Iulie, Duminică

    Timp Temperatura Precipitaţii Vânt Presiune Umiditate
    00:00 +5°C° 0 mm 3 m/s 745 mmHg 90%
    01:00 +7°C° 0 mm 3 m/s 744 mmHg 90%
    02:00 +7°C° 0,1 mm 3 m/s 744 mmHg 90%
    03:00 +7°C° 0,1 mm 3 m/s 744 mmHg 90%
    04:00 +7°C° 0,1 mm 3 m/s 744 mmHg 90%
    05:00 +7°C° 0,1 mm 3 m/s 744 mmHg 91%
    06:00 +7°C° 0,1 mm 3 m/s 744 mmHg 92%
    07:00 +6°C° 0,1 mm 4 m/s 744 mmHg 93%
    08:00 +8°C° 0 mm 4 m/s 744 mmHg 88%
    09:00 +10°C° 0 mm 4 m/s 744 mmHg 84%
    10:00 +11°C° 0 mm 4 m/s 744 mmHg 79%
    11:00 +12°C° 0 mm 4 m/s 744 mmHg 75%
    12:00 +12°C° 0 mm 4 m/s 743 mmHg 71%
    13:00 +13°C° 0 mm 4 m/s 743 mmHg 67%
    14:00 +13°C° 0 mm 4 m/s 742 mmHg 68%
    15:00 +12°C° 0 mm 3 m/s 742 mmHg 68%
    16:00 +12°C° 0 mm 3 m/s 742 mmHg 68%
    17:00 +11°C° 0 mm 4 m/s 742 mmHg 73%
    18:00 +8°C° 0 mm 4 m/s 742 mmHg 77%
    19:00 +7°C° 0 mm 4 m/s 742 mmHg 81%
    20:00 +7°C° 0 mm 4 m/s 741 mmHg 79%
    21:00 +7°C° 0 mm 4 m/s 741 mmHg 77%
    22:00 +7°C° 0 mm 5 m/s 740 mmHg 75%
    23:00 +7°C° 0 mm 5 m/s 740 mmHg 74%
    Arată mai mult